Tracking 35237 objects as of 6-Sep-2026
HD Live streaming from Space Station
objects crossing your sky now

DIDO 3


DIDO 3 is no longer on orbit
DIDO 3 is classified as:


NORAD ID: 46284
Int'l Code: 2020-061N
Launch date: September 3, 2020
Source: Israel (ISRA)
Launch site: FRENCH GUIANA (FRGUI)
Decay date: 2025-03-25

Uplink (MHz):
Downlink (MHz): 400.450
Beacon (MHz):
Mode: 1k2 BPSK
Call sign: DIDO3
Status: Reentered

Your satellite tracking list
Your tracking list is empty




NASA's NSSDC Master Catalog

Two Line Element Set (TLE):
1 46284U 20061N   25081.48766028  .07487664  24492-5  76787-3 0  9996
2 46284  97.2679 159.5651 0011148 273.5907  86.4116 16.37766130252652
Source of the keplerian elements: AFSPC